Date String (YYYY-MM-DD hh:mm:ss) UTC,Instrument flags,Ambient pressure (hPa),Sample flow (lpm),Bypass flow (lpm),Sample temperature (°C),Ambient temperature (°C),ASC tube jacket temperature (°C),LED temperature (°C),Box temperature (°C),Sample RH (%),Span deviation,Mass concentration (μg/m³),Mass concentration (μg/m³),Mass concentration (μg/m³)
DateTimeUTC,F1_M11,P_M11,Q1_M11,Q2_M11,T1_M11,T2_M11,T3_M11,T4_M11,T5_M11,U1_M11,ZSPAN_M11,X2_M11,X0_M11,X1_M11
2023-04-29 10:00:00,,0832.8,4.99,0.00,22.9,21.3,00.0,31.3,24.4,13.1,0000.0,0004.26,0012.04,0002.10
2023-04-29 10:01:00,,0832.9,5.00,0.00,22.9,21.3,00.0,31.3,24.4,13.0,0000.0,0004.22,0012.02,0002.06
2023-04-29 10:02:00,,0832.8,5.01,0.00,22.9,21.3,00.0,31.3,24.4,14.2,0000.0,0004.16,0011.49,0002.02
2023-04-29 10:03:00,,0832.7,5.00,0.00,22.8,21.3,00.0,31.3,24.4,15.0,0000.0,0004.18,0011.49,0002.01
2023-04-29 10:04:00,,0832.8,5.01,0.00,22.8,21.3,00.0,31.3,24.4,13.9,0000.0,0004.24,0011.67,0001.98
2023-04-29 10:05:00,,0832.7,5.01,0.00,22.8,21.2,00.0,31.3,24.3,13.9,0000.0,0004.33,0011.59,0001.99
2023-04-29 10:06:00,,0832.8,5.00,0.00,22.8,21.2,00.0,31.3,24.3,14.3,0000.0,0004.32,0012.06,0001.96
2023-04-29 10:07:00,,0832.9,4.99,0.00,22.8,21.2,00.0,31.2,24.4,14.2,0000.0,0004.31,0012.06,0001.94
2023-04-29 10:08:00,,0832.8,4.99,0.00,22.8,21.2,00.0,31.2,24.3,13.6,0000.0,0004.27,0011.75,0001.94
2023-04-29 10:09:00,,0832.7,5.00,0.00,22.8,21.1,00.0,31.2,24.3,13.0,0000.0,0004.25,0012.25,0001.92
2023-04-29 10:10:00,,0832.7,5.01,0.00,22.7,21.1,00.0,31.2,24.2,13.2,0000.0,0004.18,0011.91,0001.91
2023-04-29 10:11:00,,0832.7,5.02,0.00,22.7,21.1,00.0,31.2,24.2,13.0,0000.0,0004.15,0011.84,0001.88
2023-04-29 10:12:00,,0832.8,4.99,0.00,22.7,21.1,00.0,31.2,24.2,13.2,0000.0,0004.21,0011.82,0001.89
2023-04-29 10:13:00,,0832.7,4.99,0.00,22.7,21.1,00.0,31.2,24.2,13.6,0000.0,0004.26,0012.05,0001.93
2023-04-29 10:14:00,,0832.7,4.98,0.00,22.7,21.1,00.0,31.2,24.2,13.8,0000.0,0004.24,0012.06,0001.92
2023-04-29 10:15:00,,0832.7,5.00,0.00,22.7,21.1,00.0,31.2,24.2,13.8,0000.0,0004.18,0011.91,0001.91
2023-04-29 10:16:00,,0832.7,5.00,0.00,22.7,21.1,00.0,31.1,24.2,14.1,0000.0,0004.10,0011.71,0001.87
2023-04-29 10:17:00,,0832.7,5.01,0.00,22.7,21.1,00.0,31.1,24.2,14.2,0000.0,0004.14,0011.24,0001.88
2023-04-29 10:18:00,,0832.7,5.00,0.00,22.7,21.1,00.0,31.1,24.2,14.2,0000.0,0004.21,0011.02,0001.91
2023-04-29 10:19:00,,0832.7,5.01,0.00,22.7,21.1,00.0,31.1,24.2,14.3,0000.0,0004.28,0010.87,0001.91
2023-04-29 10:20:00,,0832.7,5.01,0.00,22.6,21.0,00.0,31.1,24.1,14.4,0000.0,0004.33,0010.44,0001.91
2023-04-29 10:21:00,,0832.7,5.00,0.00,22.6,21.0,00.0,31.1,24.1,14.4,0000.0,0004.33,0010.13,0001.91
2023-04-29 10:22:00,,0832.6,5.00,0.00,22.6,21.0,00.0,31.1,24.2,14.3,0000.0,0004.32,0010.22,0001.92
2023-04-29 10:23:00,,0832.7,5.00,0.00,22.6,21.0,00.0,31.1,24.1,14.2,0000.0,0004.29,0010.31,0001.92
2023-04-29 10:24:00,,0832.6,4.99,0.00,22.6,21.0,00.0,31.1,24.1,14.1,0000.0,0004.23,0010.14,0001.89
2023-04-29 10:25:00,,0832.7,5.00,0.00,22.6,21.0,00.0,31.0,24.1,14.0,0000.0,0004.24,0010.13,0001.89
2023-04-29 10:26:00,,0832.7,4.99,0.00,22.6,21.0,00.0,31.0,24.2,13.8,0000.0,0004.24,0010.05,0001.89
2023-04-29 10:27:00,,0832.7,5.01,0.00,22.6,21.1,00.0,31.0,24.2,13.6,0000.0,0004.30,0010.37,0001.93
2023-04-29 10:28:00,,0832.7,5.00,0.00,22.6,21.1,00.0,31.0,24.2,13.5,0000.0,0004.32,0010.68,0001.96
2023-04-29 10:29:00,,0832.7,5.01,0.00,22.6,21.1,00.0,31.0,24.2,13.4,0000.0,0004.36,0010.96,0001.97
2023-04-29 10:30:00,,0832.7,5.01,0.00,22.6,21.1,00.0,31.0,24.2,13.6,0000.0,0004.36,0010.98,0001.98
2023-04-29 10:31:00,,0832.7,4.99,0.00,22.6,21.2,00.0,31.0,24.2,13.5,0000.0,0004.27,0010.71,0002.00
2023-04-29 10:32:00,,0832.7,4.99,0.00,22.6,21.2,00.0,31.0,24.2,13.6,0000.0,0004.29,0010.79,0002.00
2023-04-29 10:33:00,,0832.6,4.99,0.00,22.7,21.2,00.0,31.0,24.3,13.6,0000.0,0004.33,0010.75,0002.01
2023-04-29 10:34:00,,0832.6,5.01,0.00,22.7,21.2,00.0,31.0,24.3,13.5,0000.0,0004.34,0010.84,0002.02
2023-04-29 10:35:00,,0832.7,5.00,0.00,22.7,21.2,00.0,31.0,24.3,13.2,0000.0,0004.39,0011.02,0002.03
2023-04-29 10:36:00,,0832.7,4.99,0.00,22.7,21.2,00.0,31.0,24.3,13.2,0000.0,0004.39,0011.04,0002.02
2023-04-29 10:37:00,,0832.6,4.99,0.00,22.7,21.2,00.0,31.0,24.3,13.3,0000.0,0004.39,0011.07,0002.02
2023-04-29 10:38:00,,0832.6,5.00,0.00,22.7,21.3,00.0,31.0,24.3,13.3,0000.0,0004.37,0011.16,0002.02
2023-04-29 10:39:00,,0832.6,5.00,0.00,22.7,21.3,00.0,31.0,24.3,13.3,0000.0,0004.32,0010.82,0002.00
2023-04-29 10:40:00,,0832.6,5.01,0.00,22.7,21.3,00.0,31.0,24.3,13.5,0000.0,0004.29,0010.68,0002.00
2023-04-29 10:41:00,,0832.7,5.00,0.00,22.7,21.3,00.0,31.0,24.2,13.5,0000.0,0004.26,0010.85,0002.00
2023-04-29 10:42:00,,0832.6,5.01,0.00,22.7,21.3,00.0,31.0,24.3,13.3,0000.0,0004.37,0011.22,0001.98
2023-04-29 10:43:00,,0832.6,5.00,0.00,22.7,21.3,00.0,31.0,24.3,13.2,0000.0,0004.42,0011.36,0001.97
2023-04-29 10:44:00,,0832.6,5.01,0.00,22.7,21.3,00.0,31.0,24.3,13.4,0000.0,0004.42,0011.41,0001.96
2023-04-29 10:45:00,,0832.6,5.00,0.00,22.7,21.3,00.0,31.0,24.3,13.6,0000.0,0004.38,0011.43,0001.92
2023-04-29 10:46:00,,0832.7,4.99,0.00,22.7,21.3,00.0,31.0,24.2,13.7,0000.0,0004.43,0011.40,0001.92
2023-04-29 10:47:00,,0832.6,5.01,0.00,22.7,21.3,00.0,31.0,24.2,13.5,0000.0,0004.53,0011.85,0001.94
2023-04-29 10:48:00,,0832.7,4.99,0.00,22.7,21.3,00.0,31.0,24.2,13.6,0000.0,0004.54,0012.00,0001.95
2023-04-29 10:49:00,,0832.7,4.99,0.00,22.7,21.3,00.0,31.0,24.2,13.7,0000.0,0004.55,0011.81,0001.94
2023-04-29 10:50:00,,0832.7,5.00,0.00,22.7,21.3,00.0,31.0,24.3,13.6,0000.0,0004.58,0011.74,0001.95
2023-04-29 10:51:00,,0832.7,4.99,0.00,22.7,21.3,00.0,31.0,24.3,13.5,0000.0,0004.55,0011.68,0001.94
2023-04-29 10:52:00,,0832.7,5.00,0.00,22.7,21.3,00.0,31.0,24.3,13.4,0000.0,0004.53,0011.39,0001.91
2023-04-29 10:53:00,,0832.7,5.01,0.00,22.7,21.3,00.0,31.0,24.3,13.1,0000.0,0004.50,0011.14,0001.92
2023-04-29 10:54:00,,0832.7,4.99,0.00,22.7,21.3,00.0,31.1,24.3,13.1,0000.0,0004.44,0010.95,0001.93
2023-04-29 10:55:00,,0832.7,5.01,0.00,22.7,21.3,00.0,31.1,24.3,13.1,0000.0,0004.43,0010.98,0001.93
2023-04-29 10:56:00,,0832.7,5.00,0.00,22.7,21.3,00.0,31.1,24.3,13.0,0000.0,0004.50,0011.05,0001.96
2023-04-29 10:57:00,,0832.7,5.00,0.00,22.7,21.3,00.0,31.1,24.3,13.1,0000.0,0004.47,0011.02,0001.97
2023-04-29 10:58:00,,0832.7,5.00,0.00,22.7,21.3,00.0,31.1,24.3,13.1,0000.0,0004.39,0010.65,0001.95
2023-04-29 10:59:00,,0832.7,5.00,0.00,22.7,21.3,00.0,31.1,24.3,13.1,0000.0,0004.31,0010.24,0001.93
